Weather Service Report


464 
ASUS43 KOAX 300010
RWRNE 

WEATHER ROUNDUP FOR NEBRASKA
NATIONAL WEATHER SERVICE OMAHA NE
700 PM CDT FRI APR 29 2016

NOTES: SATELLITE DATA IS BEING USED TO AUGMENT CLOUD COVER ABOVE
       12000 FEET.
       "FAIR" INDICATES FEW OR NO CLOUDS BELOW 12,000 FEET WITH NO
       SIGNIFICANT WEATHER AND/OR OBSTRUCTIONS TO VISIBILITY.

  * THESE STATIONS DO NOT REPORT WEATHER SUCH AS RAIN...SNOW OR FOG.
   
NEZ001>004-019>022-054>056-300100-
NEBRASKA PANHANDLE
  
CITY           SKY/WX    TMP DP  RH WIND       PRES   REMARKS
SCOTTSBLUFF    LGT RAIN  37  34  89 E6        29.96S WCI  32          
6HR MIN TEMP:  37; 6HR MAX TEMP:  46; 6HR PCP:  0.16;                

ALLIANCE       LGT RAIN  37  35  92 NE9       29.95R FOG     WCI  30  
6HR MIN TEMP:  37; 6HR MAX TEMP:  44; 6HR PCP:  0.13;                

CHADRON        CLOUDY    42  35  76 NE13      29.98F                  
6HR MIN TEMP:  41; 6HR MAX TEMP:  44;                                

KIMBALL        SNOW      33  33  99 N3        29.93F VSB 1/2          
SIDNEY         HVY SNOW  33  32  96 N5        29.93S VSB 1/4 WCI  29  
6HR MIN TEMP:  33; 6HR MAX TEMP:  42;                                

$$
 
NEZ057>060-069>072-079>082-300100-
SOUTHWEST NEBRASKA
  
CITY           SKY/WX    TMP DP  RH WIND       PRES   REMARKS
NORTH PLATTE   LGT RAIN  41  37  86 NE18G24   29.90F                  
6HR MIN TEMP:  41; 6HR MAX TEMP:  44; 6HR PCP: TRACE;                

IMPERIAL       LGT RAIN  35  33  92 N14       29.91S FOG     WCI  26  
6HR MIN TEMP:  35; 6HR MAX TEMP:  41; 6HR PCP:  0.30;                

LEXINGTON      CLOUDY    42  38  87 NE21G30   29.88F                  
MCCOOK         CLOUDY    42  39  89 NE16G31   29.84S                  
6HR MIN TEMP:  42; 6HR MAX TEMP:  43; 6HR PCP:  0.03;                

OGALLALA       RAIN      38  36  89 N10       29.93S WCI  32          
$$
 
NEZ005>010-023>029-035>040-094-300100-
NORTH CENTRAL NEBRASKA
  
CITY           SKY/WX    TMP DP  RH WIND       PRES   REMARKS
VALENTINE      CLOUDY    41  36  82 NE12      30.00R                  
6HR MIN TEMP:  40; 6HR MAX TEMP:  43;                                

AINSWORTH      CLOUDY    41  38  89 E10       29.99S                  
BROKEN BOW     CLOUDY    41  39  93 E16G23    29.94S                  
6HR MIN TEMP:  41; 6HR MAX TEMP:  43; 6HR PCP: TRACE;                

O'NEILL        CLOUDY    42  40  93 NE17      29.98F FOG              
ORD            CLOUDY    43  39  86 E15       29.94R                  
6HR MIN TEMP:  42; 6HR MAX TEMP:  47;                                

THEDFORD       CLOUDY    41  38  87 E13       29.97S                  
$$
 
NEZ041-046>049-061>064-073>077-083>087-300100-
SOUTH CENTRAL NEBRASKA
  
CITY           SKY/WX    TMP DP  RH WIND       PRES   REMARKS
GRAND ISLAND   CLOUDY    43  40  89 E18G25    29.92R                  
6HR MIN TEMP:  42; 6HR MAX TEMP:  45;                                

AURORA         CLOUDY    43  41  93 E22G28    29.91S                  
HASTINGS       CLOUDY    43  39  86 E18G28    29.88S                  
6HR MIN TEMP:  43; 6HR MAX TEMP:  45; 6HR PCP:  0.01;                

HEBRON         CLOUDY    47  43  85 E20G29    29.86F                  
HOLDREGE       CLOUDY    42  39  89 NE22G28   29.87S                  
KEARNEY *      CLOUDY    43  37  81 NE23      29.90S                  
YORK           CLOUDY    45  41  87 E24       29.91F                  
$$
 
NEZ011>018-030>034-042>045-300100-
NORTHEAST NEBRASKA
  
CITY           SKY/WX    TMP DP  RH WIND       PRES   REMARKS
NORFOLK        CLOUDY    44  39  82 NE15G21   29.96F                  
6HR MIN TEMP:  43; 6HR MAX TEMP:  45; 6HR PCP: TRACE;                

ALBION         CLOUDY    44  39  82 E15G22    29.95F                  
BLAIR          CLOUDY    48  43  84 NE16      29.95F                  
COLUMBUS *     CLOUDY    45  36  70 E18       29.96F                  
FREMONT        CLOUDY    47  42  82 NE13      29.97S                  
TEKAMAH        CLOUDY    48  43  82 NE12      29.99F                  
6HR MIN TEMP:  47; 6HR MAX TEMP:  49;                                

WAYNE          CLOUDY    45  41  88 NE14      29.99F                  
$$

NEZ050>053-065>068-078-088>093-300100-
SOUTHEAST NEBRASKA
  
CITY           SKY/WX    TMP DP  RH WIND       PRES   REMARKS
LINCOLN        CLOUDY    48  43  82 NE21      29.94F                  
6HR MIN TEMP:  48; 6HR MAX TEMP:  49;                                

OMAHA EPPLEY   CLOUDY    49  43  80 E9        29.96F                  
6HR MIN TEMP:  48; 6HR MAX TEMP:  50;                                

BEATRICE       CLOUDY    49  45  85 E20G28    29.88S                  
FALLS CITY     CLOUDY    51  48  89 E18G26    29.88F                  
6HR MIN TEMP:  50; 6HR MAX TEMP:  53; 6HR PCP:  0.15;                

NEBRASKA CITY  CLOUDY    49  47  92 NE15G21   29.92R                  
PLATTSMOUTH    CLOUDY    48  44  85 NE15      29.94S                  
$$

NEZ044-045-051>053-067-300100-
OMAHA AREA
  
CITY           SKY/WX    TMP DP  RH WIND       PRES   REMARKS
OMAHA EPPLEY   CLOUDY    49  43  80 E9        29.96F                  
6HR MIN TEMP:  48; 6HR MAX TEMP:  50;                                

BLAIR          CLOUDY    48  43  84 NE16      29.95F                  
FREMONT        CLOUDY    47  42  82 NE13      29.97S                  
MILLARD        CLOUDY    49  43  79 E5        29.96S                  
OFFUTT AFB     CLOUDY    49  44  84 E13       29.95S                  
PLATTSMOUTH    CLOUDY    48  44  85 NE15      29.94S                  
WAHOO          CLOUDY    47  43  88 E13       29.96F                  
$$
  

Return to Home page


Western Regional Climate Center, wrcc@dri.edu